EW9439 Weather Reports


time (UTC)temp
C
wind
direction
speed
KPH
gust
KPH
rain 1hr
cm
rain 24hr
cm
rain mn
cm
humidity
%
barometer
mb
20260906131551 23 198 0.0 0.0 0.00 2.31 0.03 100 1009.0
20260906130106 22 198 0.0 0.0 0.00 2.31 0.03 99 1009.0
20260906124553 22 198 0.0 0.0 0.00 2.31 0.03 99 1008.8
20260906123049 21 198 0.0 0.0 0.00 2.31 0.03 99 1008.6
20260906121551 21 198 0.0 0.0 0.00 2.31 0.03 99 1008.5
20260906120059 21 198 0.0 0.0 0.00 2.31 0.03 99 1008.3
20260906114516 21 198 0.0 0.0 0.00 2.31 0.03 99 1008.2
20260906113013 21 198 0.0 0.0 0.00 2.31 0.03 99 1008.1
20260906111511 21 198 0.0 0.0 0.00 2.31 0.03 99 1008.3
20260906110015 21 198 0.0 0.0 0.00 2.31 0.03 98 1008.4
20260906104521 21 198 0.0 0.0 0.00 2.31 0.03 98 1008.4
20260906103019 21 198 0.0 0.0 0.00 2.31 0.03 99 1008.2
20260906101523 21 198 0.0 0.0 0.00 2.31 0.03 99 1008.2
20260906100026 21 198 0.0 0.0 0.03 2.31 0.03 99 1008.1
20260906094528 21 198 0.0 0.0 0.03 2.31 0.03 99 1008.2
20260906093028 21 198 0.0 0.0 0.03 2.31 0.03 99 1008.2
20260906091527 21 198 0.0 0.0 0.03 2.31 0.03 99 1008.1
20260906090026 21 198 0.0 0.0 0.00 2.29 0.00 98 1008.1
20260906084529 21 198 0.0 0.0 0.00 2.29 0.00 98 1008.0
20260906083035 21 198 0.0 0.0 0.00 2.29 0.00 98 1008.0
20260906081535 21 198 0.0 0.0 0.00 2.29 0.00 98 1007.9
20260906080039 21 198 0.0 0.0 0.00 2.29 0.00 98 1007.8
20260906074538 21 198 0.0 0.0 0.00 2.29 0.00 98 1007.9
20260906073041 21 198 0.0 0.0 0.00 2.29 0.00 98 1008.0
20260906071545 21 198 0.0 0.0 0.00 2.29 0.00 98 1008.0
20260906070054 21 198 0.0 0.0 0.00 2.29 0.00 98 1008.0
20260906064552 21 198 0.0 0.0 0.00 2.29 0.00 98 1007.9
20260906063053 21 198 0.0 0.0 0.00 2.29 0.00 98 1008.1
20260906061600 21 198 0.0 0.0 0.00 2.29 0.00 98 1008.3
20260906060059 21 198 0.0 0.0 0.00 2.29 0.00 98 1008.7
20260906054535 21 198 0.0 0.0 0.00 2.29 0.00 98 1008.6
20260906053020 21 198 0.0 0.0 0.00 2.29 0.00 98 1008.6
20260906051520 21 198 0.0 0.0 0.00 2.29 0.00 98 1008.8
20260906050004 21 198 0.0 0.0 0.00 2.29 0.00 98 1008.9
20260906044506 21 198 0.0 0.0 0.00 2.29 0.00 98 1008.9
20260906043016 21 198 0.0 0.0 0.00 2.29 0.00 98 1008.7
20260906041552 21 198 0.0 0.0 0.00 2.29 0.00 98 1008.4
20260906040118 22 198 0.0 0.0 0.00 2.29 2.29 98 1008.6
20260906034539 22 198 0.0 0.0 0.00 2.29 2.29 98 1008.8
20260906033038 22 198 0.0 0.0 0.00 2.29 2.29 98 1008.9
20260906031523 22 198 0.0 0.0 0.00 2.29 2.29 98 1009.1
20260906030026 22 198 0.0 0.0 0.00 2.29 2.29 98 1009.3
20260906024530 22 198 0.0 0.0 0.00 2.29 2.29 97 1009.3
20260906023028 22 198 0.0 0.0 0.00 2.29 2.29 97 1009.2
20260906021531 22 198 0.0 0.0 0.00 2.29 2.29 97 1009.3
20260906020034 22 198 0.0 0.0 0.00 2.29 2.29 97 1009.1
20260906014537 22 198 0.0 0.0 0.00 2.29 2.29 96 1009.1
20260906013047 22 198 0.0 0.0 0.00 2.29 2.29 96 1009.1
20260906011555 22 198 0.0 0.0 0.00 2.29 2.29 96 1009.0
20260906010005 22 198 0.0 0.0 0.00 2.29 2.29 96 1008.7
20260906004511 22 198 0.0 0.0 0.00 2.29 2.29 96 1008.2
20260906003017 22 198 0.0 0.0 0.00 2.29 2.29 96 1007.7
20260906001513 22 198 0.0 0.0 0.00 2.29 2.29 96 1007.4
20260906000015 22 198 0.0 0.0 0.00 2.29 2.29 96 1006.9
20260905234516 22 198 0.0 0.0 0.03 2.29 2.29 95 1006.3
20260905233017 22 198 0.0 0.0 0.71 2.29 2.29 94 1006.2
20260905231521 21 198 0.0 0.0 2.29 2.29 2.29 93 1006.7
20260905230020 22 198 0.0 0.0 2.29 2.29 2.29 89 1006.9
20260905224603 22 150 0.0 1.6 2.26 2.26 2.26 89 1007.8
20260905223026 25 333 0.0 12.9 1.42 1.42 1.55 87 1009.1
20260905221528 28 117 0.0 0.0 0.00 0.00 0.00 73 1007.1
20260905220032 33 145 0.0 0.0 0.00 0.00 0.00 61 1006.7
20260905214543 33 102 0.0 0.0 0.00 0.00 0.00 60 1005.9
20260905213042 33 102 0.0 0.0 0.00 0.00 0.00 58 1005.9
20260905211550 33 102 0.0 0.0 0.00 0.00 0.00 59 1005.9
20260905210053 33 102 0.0 0.0 0.00 0.00 0.00 60 1006.2
20260905204537 33 102 0.0 0.0 0.00 0.00 0.00 59 1006.5
20260905203037 33 102 0.0 0.0 0.00 0.00 0.00 59 1006.6
20260905201534 33 102 0.0 0.0 0.00 0.00 0.00 59 1006.8
20260905200036 34 102 0.0 0.0 0.00 0.00 0.00 55 1006.9
20260905194544 35 102 0.0 0.0 0.00 0.00 0.00 54 1007.1
20260905193042 35 102 0.0 0.0 0.00 0.00 0.00 56 1007.1
20260905191542 35 102 0.0 0.0 0.00 0.00 0.00 54 1007.3
20260905190044 35 102 0.0 0.0 0.00 0.00 0.00 54 1007.6
20260905184557 34 117 0.0 0.0 0.00 0.00 0.00 54 1007.9
20260905183050 34 106 0.0 0.0 0.00 0.00 0.00 58 1008.0
20260905181550 33 161 0.0 0.0 0.00 0.00 0.00 59 1008.3
20260905180100 33 155 0.0 0.0 0.00 0.00 0.00 61 1008.4
20260905174552 34 155 0.0 0.0 0.00 0.00 0.00 58 1008.7
20260905173128 33 172 0.0 1.6 0.00 0.00 0.00 57 1008.7
20260905173002 33 172 0.0 1.6 0.00 0.00 0.00 59 1008.8
20260905171503 33 170 0.0 1.6 0.00 0.00 0.00 63 1009.0
20260905170006 33 63 0.0 1.6 0.00 0.00 0.00 61 1009.1
20260905164513 33 355 0.0 1.6 0.00 0.00 0.00 63 1009.3
20260905163006 33 112 0.0 0.0 0.00 0.00 0.00 64 1009.4
20260905161508 32 88 0.0 0.0 0.00 0.00 0.00 66 1009.7
20260905160012 32 317 0.0 0.0 0.00 0.00 0.00 68 1009.9
20260905154512 32 317 0.0 0.0 0.00 0.00 0.00 69 1010.1
20260905153016 31 317 0.0 0.0 0.00 0.00 0.00 70 1010.2
20260905151518 31 317 0.0 0.0 0.00 0.00 0.00 72 1010.4
20260905150013 31 315 0.0 0.0 0.00 0.00 0.00 72 1010.3
20260905144522 30 314 0.0 0.0 0.00 0.00 0.00 74 1010.3
20260905143015 29 314 0.0 0.0 0.00 0.00 0.00 76 1010.4
20260905141515 28 314 0.0 0.0 0.00 0.00 0.00 78 1010.5
20260905140017 28 314 0.0 0.0 0.00 0.00 0.00 81 1010.6
20260905134519 28 314 0.0 0.0 0.00 0.00 0.00 83 1010.6
20260905133032 27 314 0.0 0.0 0.00 0.00 0.00 88 1010.8